FW1160 Bellingham WA US current weather conditions

sailwx.info

Wind from 096 at 0 knots gusting 4

Air temperature 12.2° C
Dewpoint 10.6° C

Last reported at 2020-Jul-10 13:02 UTC.
Time now 2020-Jul-10 13:31 UTC

Location: N 48°45' W 122°21'.
View on Google Maps.

See reports from other nearby stations

  
Tides and Currents Weather Stations Pressure Air Temp Water Temp Dewpoint Dewpoint Depression Visibility Wind Speed Wind Dir Waves Ship Positions
date/time (UTC)wind fromknots sea level pressurealtimeterstation pressurevisibilityair tempwater tempwave heightnotes
2020-Jul-10 13:02 096 0 gusting 4 12.2
2020-Jul-10 12:46 116 12.2
2020-Jul-10 12:31 328 12.2
2020-Jul-10 12:15 127 0 gusting 6 12.8
2020-Jul-10 12:01 104 12.8
2020-Jul-10 11:46 141 12.8
2020-Jul-10 11:30 120 12.8
2020-Jul-10 11:16 138 13.3
2020-Jul-10 11:01 113 0 gusting 4 13.3
2020-Jul-10 10:46 141 0 gusting 4 13.3
2020-Jul-10 10:31 117 13.3
2020-Jul-10 10:15 086 0 gusting 5 13.3
2020-Jul-10 10:01 195 0 gusting 3 12.8
2020-Jul-10 09:45 109 12.8
2020-Jul-10 09:31 072 0 gusting 5 12.8
2020-Jul-10 09:15 075 1 gusting 3 12.2
2020-Jul-10 09:00 211 12.8
2020-Jul-10 08:46 158 12.8
2020-Jul-10 08:30 125 0 gusting 4 13.3
2020-Jul-10 08:15 346 0 gusting 6 13.3
2020-Jul-10 08:00 155 13.3
2020-Jul-10 07:45 129 1 gusting 6 13.3
2020-Jul-10 07:30 011 12.8
2020-Jul-10 07:15 338 13.3
2020-Jul-10 07:00 153 0 gusting 6 13.9
2020-Jul-10 06:45 104 13.3
2020-Jul-10 06:30 119 13.9
2020-Jul-10 06:15 131 0 gusting 3 13.9
2020-Jul-10 06:00 176 0 gusting 5 13.9
2020-Jul-10 05:45 108 1 gusting 3 13.9
2020-Jul-10 05:31 162 0 gusting 5 13.9
2020-Jul-10 05:17 157 1 gusting 4 14.4
2020-Jul-10 05:02 165 1 gusting 6 14.4
2020-Jul-10 04:46 113 0 gusting 4 14.4
2020-Jul-10 04:32 248 1 gusting 7 15.0
2020-Jul-10 04:16 193 1 gusting 4 15.0
2020-Jul-10 04:01 159 3 gusting 6 15.6
2020-Jul-10 03:46 139 1 gusting 6 16.7
2020-Jul-10 03:31 127 3 gusting 7 17.2
2020-Jul-10 03:18 148 4 gusting 8 17.2
2020-Jul-10 03:01 158 4 gusting 7 17.8
2020-Jul-10 02:46 072 2 gusting 6 17.8
2020-Jul-10 02:31 132 2 gusting 7 17.2
2020-Jul-10 02:16 161 2 gusting 6 16.7
2020-Jul-10 02:01 168 1 gusting 6 16.7
2020-Jul-10 01:47 136 2 gusting 6 16.7
2020-Jul-10 01:31 151 1 gusting 6 16.7
2020-Jul-10 01:15 122 1 gusting 5 16.7
2020-Jul-10 01:01 165 1 gusting 5 16.7
2020-Jul-10 00:46 150 1 gusting 5 16.7
2020-Jul-10 00:31 133 16.7
2020-Jul-10 00:16 153 0 gusting 4 16.1
2020-Jul-10 00:02 188 1 gusting 6 16.1
2020-Jul-09 23:47 248 5 gusting 7 16.1
2020-Jul-09 23:31 231 6 gusting 8 16.1
2020-Jul-09 23:15 221 6 gusting 8 16.1
2020-Jul-09 23:01 240 4 gusting 7 16.7
2020-Jul-09 22:47 188 1 gusting 5 17.2
2020-Jul-09 22:32 226 1 gusting 6 16.7
2020-Jul-09 22:16 212 6 gusting 6 17.2
2020-Jul-09 22:01 229 3 gusting 6 17.2
2020-Jul-09 21:45 143 5 gusting 8 17.8
2020-Jul-09 21:31 098 3 gusting 6 17.8
2020-Jul-09 21:15 118 3 gusting 7 17.8
2020-Jul-09 21:01 071 1 gusting 7 17.8
2020-Jul-09 20:45 213 3 gusting 6 17.2
2020-Jul-09 20:30 153 4 gusting 9 16.7
2020-Jul-09 20:16 180 2 gusting 7 16.7
2020-Jul-09 20:00 025 1 gusting 7 16.7
2020-Jul-09 19:45 082 3 gusting 6 16.7
2020-Jul-09 19:30 200 2 gusting 8 16.1
2020-Jul-09 19:15 117 3 gusting 7 16.1
2020-Jul-09 19:01 100 0 gusting 6 16.1
2020-Jul-09 18:45 153 4 gusting 8 16.7
2020-Jul-09 18:30 100 0 gusting 6 16.1
2020-Jul-09 18:15 183 1 gusting 6 16.1
2020-Jul-09 18:00 098 0 gusting 5 15.6
2020-Jul-09 17:45 081 0 gusting 4 15.6
2020-Jul-09 17:30 159 0 gusting 3 15.6
2020-Jul-09 17:15 127 0 gusting 6 15.0
2020-Jul-09 17:00 167 1 gusting 6 14.4
2020-Jul-09 16:45 156 0 gusting 4 14.4
2020-Jul-09 16:31 152 1 gusting 4 13.9
2020-Jul-09 16:17 168 13.9
2020-Jul-09 16:01 159 13.9
2020-Jul-09 15:47 118 13.9
2020-Jul-09 15:31 114 0 gusting 3 13.3
2020-Jul-09 15:16 123 13.3
2020-Jul-09 15:02 113 0 gusting 3 13.3
2020-Jul-09 14:47 117 13.3
2020-Jul-09 14:32 159 13.3
2020-Jul-09 14:16 159 13.3
2020-Jul-09 14:02 159 0 gusting 1 13.3
2020-Jul-09 13:46 150 12.8
2020-Jul-09 13:32 151 12.8
2020-Jul-09 13:16 150 12.8
2020-Jul-09 13:01 151 12.8
2020-Jul-09 12:46 150 12.8
2020-Jul-09 12:31 151 12.8
2020-Jul-09 12:16 150 12.8
2020-Jul-09 12:02 150 12.8
2020-Jul-09 11:46 151 12.8
2020-Jul-09 11:30 150 12.8
2020-Jul-09 11:16 151 12.8
2020-Jul-09 11:01 150 12.8
2020-Jul-09 10:46 151 13.3
2020-Jul-09 10:31 151 13.3
2020-Jul-09 10:15 151 13.3
2020-Jul-09 10:01 148 13.3
2020-Jul-09 09:46 259 12.8
2020-Jul-09 09:30 258 13.3
2020-Jul-09 09:15 258 12.8
2020-Jul-09 09:00 259 12.8
2020-Jul-09 08:45 259 12.8
2020-Jul-09 08:31 259 12.8
2020-Jul-09 08:15 258 13.3
2020-Jul-09 08:01 259 13.3
2020-Jul-09 07:45 259 13.3
2020-Jul-09 07:30 259 13.3
2020-Jul-09 07:16 258 13.9
2020-Jul-09 07:00 259 13.3
2020-Jul-09 06:30 259 13.9
2020-Jul-09 06:15 255 13.9
2020-Jul-09 06:00 255 13.9
2020-Jul-09 05:30 255 14.4
2020-Jul-09 05:15 255 14.4
2020-Jul-09 05:00 255 15.0
2020-Jul-09 04:45 255 16.1
2020-Jul-09 04:31 239 16.1
2020-Jul-09 04:15 231 16.1
2020-Jul-09 04:00 017 16.1
2020-Jul-09 03:45 316 2 gusting 4 16.7
2020-Jul-09 03:30 335 2 gusting 5 17.2
2020-Jul-09 03:15 359 1 gusting 3 17.2
2020-Jul-09 03:00 321 2 gusting 4 17.8
2020-Jul-09 02:45 338 2 gusting 6 18.3
2020-Jul-09 02:30 321 2 gusting 6 18.9
2020-Jul-09 02:15 340 2 gusting 5 20.6
2020-Jul-09 02:00 303 3 gusting 6 20.6
2020-Jul-09 01:45 319 2 gusting 5 21.1
2020-Jul-09 01:17 330 1 gusting 6 20.0
2020-Jul-09 01:01 341 3 gusting 6 20.0
2020-Jul-09 00:48 337 1 gusting 4 20.6
2020-Jul-09 00:31 312 3 gusting 5 20.0
2020-Jul-09 00:16 309 3 gusting 6 19.4
2020-Jul-09 00:02 321 3 gusting 6 19.4
2020-Jul-08 23:47 327 3 gusting 6 20.0
2020-Jul-08 23:32 323 2 gusting 5 19.4
2020-Jul-08 23:16 314 2 gusting 6 18.9
2020-Jul-08 23:00 314 5 gusting 8 19.4
2020-Jul-08 22:46 013 1 gusting 4 19.4
2020-Jul-08 22:31 347 0 gusting 6 18.3
2020-Jul-08 22:15 316 3 gusting 6 18.3
2020-Jul-08 22:01 314 3 gusting 6 18.3
2020-Jul-08 21:46 336 2 gusting 7 18.3
2020-Jul-08 21:31 319 4 gusting 6 18.3
2020-Jul-08 21:16 300 3 gusting 6 18.3
2020-Jul-08 21:01 312 3 gusting 5 17.8
2020-Jul-08 20:46 316 4 gusting 6 17.8
2020-Jul-08 20:30 311 0 gusting 4 18.9
2020-Jul-08 20:16 329 0 gusting 3 19.4
2020-Jul-08 20:01 221 18.9
2020-Jul-08 19:46 194 0 gusting 2 18.9
2020-Jul-08 19:30 339 18.9
2020-Jul-08 19:15 340 17.8
2020-Jul-08 19:00 338 0 gusting 3 17.2
2020-Jul-08 18:45 281 0 gusting 1 16.7
2020-Jul-08 18:30 177 16.7
2020-Jul-08 18:15 153 1 gusting 3 16.7
2020-Jul-08 18:00 181 2 gusting 4 16.7
2020-Jul-08 17:45 200 0 gusting 4 16.1
2020-Jul-08 17:30 131 0 gusting 3 16.1
2020-Jul-08 17:15 177 0 gusting 5 15.6
2020-Jul-08 17:02 167 1 gusting 4 15.6
2020-Jul-08 16:46 253 2 gusting 6 15.6
2020-Jul-08 16:31 127 0 gusting 2 15.6
2020-Jul-08 16:16 121 0 gusting 4 15.0
2020-Jul-08 16:01 150 0 gusting 4 15.0
2020-Jul-08 15:45 259 0 gusting 5 15.0
2020-Jul-08 15:31 208 2 gusting 5 14.4
2020-Jul-08 15:16 141 1 gusting 6 14.4
2020-Jul-08 15:01 119 2 gusting 6 14.4
2020-Jul-08 14:46 114 1 gusting 6 13.9
2020-Jul-08 14:31 117 1 gusting 6 13.9
2020-Jul-08 14:16 134 2 gusting 6 13.3
2020-Jul-08 14:01 184 2 gusting 6 13.3
2020-Jul-08 13:47 159 1 gusting 7 13.3
2020-Jul-08 13:33 135 0 gusting 7 13.3
2020-Jul-08 13:16 115 0 gusting 4 13.3
2020-Jul-08 13:02 124 12.8